TimeEDT,TemperatureF,Dew PointF,Humidity,Sea Level PressureIn,VisibilityMPH,Wind Direction,Wind SpeedMPH,Gust SpeedMPH,PrecipitationIn,Events,Conditions,WindDirDegrees,DateUTC
12:15 AM,50.0,41.0,71,29.85,10.0,West,9.2,-,N/A,,Unknown,260,2012-10-21 04:15:00
12:35 AM,50.0,41.0,71,29.86,10.0,West,10.4,-,N/A,,Unknown,270,2012-10-21 04:35:00
12:55 AM,50.0,41.0,71,29.87,10.0,West,10.4,-,N/A,Rain,Rain,270,2012-10-21 04:55:00
1:15 AM,50.0,41.0,71,29.88,10.0,West,8.1,-,N/A,Rain,Rain,270,2012-10-21 05:15:00
1:35 AM,50.0,41.0,71,29.88,10.0,West,6.9,-,N/A,Rain,Rain,280,2012-10-21 05:35:00
1:55 AM,50.0,41.0,71,29.88,10.0,West,8.1,-,N/A,Rain,Rain,270,2012-10-21 05:55:00
2:15 AM,50.0,41.0,71,29.89,10.0,West,9.2,-,N/A,,Unknown,270,2012-10-21 06:15:00
2:35 AM,48.2,41.0,76,29.88,10.0,West,9.2,-,N/A,,Unknown,280,2012-10-21 06:35:00
2:55 AM,48.2,41.0,76,29.88,10.0,West,9.2,-,N/A,,Unknown,270,2012-10-21 06:55:00
3:15 AM,48.2,41.0,76,29.89,10.0,West,11.5,16.1,N/A,,Unknown,270,2012-10-21 07:15:00
3:35 AM,48.2,41.0,76,29.88,10.0,West,6.9,-,N/A,,Unknown,270,2012-10-21 07:35:00
3:55 AM,48.2,41.0,76,29.89,10.0,West,5.8,-,N/A,,Unknown,270,2012-10-21 07:55:00
4:15 AM,48.2,41.0,76,29.90,10.0,West,3.5,-,N/A,,Unknown,280,2012-10-21 08:15:00
4:35 AM,48.2,41.0,76,29.89,10.0,West,4.6,-,N/A,,Unknown,280,2012-10-21 08:35:00
4:55 AM,48.2,41.0,76,29.90,10.0,West,4.6,-,N/A,,Unknown,270,2012-10-21 08:55:00
5:15 AM,48.2,41.0,76,29.90,10.0,WSW,3.5,-,N/A,,Unknown,250,2012-10-21 09:15:00
5:35 AM,48.2,41.0,76,29.90,10.0,WSW,4.6,-,N/A,,Unknown,240,2012-10-21 09:35:00
5:55 AM,46.4,41.0,81,29.92,10.0,WSW,4.6,-,N/A,,Unknown,250,2012-10-21 09:55:00
6:15 AM,44.6,41.0,87,29.92,10.0,West,3.5,-,N/A,,Unknown,260,2012-10-21 10:15:00
6:35 AM,44.6,41.0,87,29.93,10.0,WSW,3.5,-,N/A,,Unknown,240,2012-10-21 10:35:00
6:45 AM,46.4,41.0,81,29.94,10.0,West,4.6,-,N/A,,Clear,270,2012-10-21 10:45:00
7:45 AM,46.4,41.0,81,29.96,10.0,Calm,Calm,-,N/A,,Clear,0,2012-10-21 11:45:00
8:45 AM,50.0,42.8,76,29.98,10.0,West,5.8,-,N/A,,Clear,260,2012-10-21 12:45:00
9:45 AM,55.4,42.8,63,30.00,10.0,WNW,6.9,-,N/A,,Clear,290,2012-10-21 13:45:00
10:45 AM,57.2,41.0,55,30.00,10.0,WNW,9.2,15.0,N/A,,Scattered Clouds,300,2012-10-21 14:45:00
11:45 AM,59.0,41.0,51,29.99,10.0,NW,10.4,18.4,N/A,,Scattered Clouds,320,2012-10-21 15:45:00
12:45 PM,64.4,57.2,77,29.98,15.0,NNW,17.3,20.7,N/A,,Scattered Clouds,330,2012-10-21 16:45:00
1:45 PM,66.2,37.4,35,29.95,10.0,NNW,10.4,19.6,N/A,,Scattered Clouds,330,2012-10-21 17:45:00
2:45 PM,64.4,37.4,37,29.95,10.0,SW,11.5,23.0,N/A,,Scattered Clouds,230,2012-10-21 18:45:00
2:48 PM,64.4,37.4,37,29.95,10.0,NNW,11.5,23.0,N/A,,Scattered Clouds,330,2012-10-21 18:48:00
3:51 PM,64.4,35.6,34,29.96,10.0,NW,10.4,19.6,N/A,,Mostly Cloudy,310,2012-10-21 19:51:00
4:45 PM,62.6,35.6,37,29.96,10.0,NW,6.9,20.7,N/A,,Scattered Clouds,320,2012-10-21 20:45:00
5:45 PM,62.6,35.6,37,29.97,10.0,NNW,4.6,-,N/A,,Clear,330,2012-10-21 21:45:00
6:45 PM,55.4,41.0,58,29.99,10.0,WNW,4.6,-,N/A,,Clear,290,2012-10-21 22:45:00
7:45 PM,50.0,41.0,71,30.00,10.0,WNW,3.5,-,N/A,,Clear,290,2012-10-21 23:45:00
8:45 PM,46.4,41.0,81,30.02,10.0,SW,3.5,-,N/A,,Clear,230,2012-10-22 00:45:00
9:45 PM,48.2,41.0,76,30.04,10.0,Calm,Calm,-,N/A,,Clear,0,2012-10-22 01:45:00
10:55 PM,48.2,41.0,76,30.04,10.0,Calm,Calm,-,N/A,,Unknown,0,2012-10-22 02:55:00
11:15 PM,46.4,44.6,93,30.04,10.0,Calm,Calm,-,N/A,,Unknown,0,2012-10-22 03:15:00
11:35 PM,44.6,42.8,93,30.05,10.0,Calm,Calm,-,N/A,,Unknown,0,2012-10-22 03:35:00